Mosinee, WI

2:01 PM CDT on April 27, 2017 (GMT -0500)
Central Wisconsin

Weather History for KCWA - February, 2013

Change the Weather History Date:

Monday, February 25, 2013

  Actual Average Record
Temperature  
Mean Temperature 24 °F -  
Max Temperature 32 °F 29 °F 46 °F (1998)
Min Temperature 17 °F 12 °F -14 °F (2003)
Degree Days  
Heating Degree Days 40    
Moisture  
Dew Point 22 °F    
Average Humidity 92    
Maximum Humidity 100    
Minimum Humidity 80    
Precipitation  
Precipitation 0.00 in - - ()
Sea Level Pressure  
Sea Level Pressure 30.08 in    
Wind  
Wind Speed 1 mph (East)    
Max Wind Speed 6 mph    
Max Gust Speed -    
Visibility 8 miles    
Events Snow    
Averages and records for this station are not official NWS values.
T = Trace of Precipitation, MM = Missing Value Source: NWS Daily Summary

Daily Weather History Graph

Daily Weather History Graph

Search for Another Location

Airport or City:

Trip Planner

Search our weather history database for the weather conditions in past years. The results will help you decide how hot, cold, wet, or windy it might be!

Date:

Astronomy

Feb. 25, 2013 Rise Set
Actual Time 6:42 AM CST 5:41 PM CST
Civil Twilight 6:13 AM CST 6:10 PM CST
Nautical Twilight 5:39 AM CST 6:44 PM CST
Astronomical Twilight 5:05 AM CST 7:18 PM CST
Moon 5:57 PM CST (2/25) 6:11 AM CST (2/25)
Length of Visible Light 11h 57m
Length of Day
10h 58m
Full, 100% of the Moon is Illuminated
Feb 25
Full
Feb 25
Full
Mar 4
Last Quarter
Mar 11
New
Mar 19
First Quarter

Hourly Weather History & Observations

Time (CST) Temp. Windchill Dew Point Humidity Pressure Visibility Wind Dir Wind Speed Gust Speed Precip Events Conditions
12:15 AM 21.2 °F - 21.2 °F 100% 30.09 in 7.0 mi Calm Calm - N/A   Clear
12:35 AM 21.2 °F - 21.2 °F 100% 30.10 in 7.0 mi Calm Calm - N/A   Clear
12:55 AM 19.4 °F - 19.4 °F 100% 30.10 in 5.0 mi Calm Calm - N/A   Clear
1:15 AM 19.4 °F - 19.4 °F 100% 30.11 in 5.0 mi Calm Calm - N/A   Clear
1:35 AM 21.2 °F - 21.2 °F 100% 30.11 in 7.0 mi Calm Calm - N/A   Clear
2:15 AM 19.4 °F - 19.4 °F 100% 30.11 in 7.0 mi Calm Calm - N/A   Clear
2:35 AM 19.4 °F - 19.4 °F 100% 30.10 in 10.0 mi Calm Calm - N/A   Clear
2:55 AM 19.4 °F - 19.4 °F 100% 30.10 in 10.0 mi Calm Calm - N/A   Clear
3:15 AM 19.4 °F - 19.4 °F 100% 30.10 in 10.0 mi Calm Calm - N/A   Clear
3:35 AM 19.4 °F - 19.4 °F 100% 30.09 in 10.0 mi Calm Calm - N/A   Mostly Cloudy
3:55 AM 21.2 °F - 21.2 °F 100% 30.09 in 10.0 mi Calm Calm - N/A   Overcast
4:15 AM 19.4 °F - 19.4 °F 100% 30.09 in 10.0 mi Calm Calm - N/A   Mostly Cloudy
4:35 AM 17.6 °F - 17.6 °F 100% 30.09 in 10.0 mi Calm Calm - N/A   Scattered Clouds
5:45 AM 19.4 °F - 19.4 °F 100% 30.10 in 10.0 mi Calm Calm - N/A   Overcast
6:45 AM 19.4 °F - 19.4 °F 100% 30.10 in 5.0 mi Calm Calm - N/A Snow Light Snow
7:45 AM 21.2 °F - 21.2 °F 100% 30.11 in 5.0 mi Calm Calm - N/A Snow Light Snow
8:20 AM 23.0 °F - 21.2 °F 93% 30.11 in 1.5 mi Calm Calm - N/A Snow Light Snow
8:50 AM 23.0 °F - 23.0 °F 100% 30.11 in 3.0 mi Calm Calm - N/A Snow Light Snow
9:50 AM 26.6 °F 22.6 °F 24.8 °F 93% 30.11 in 1.5 mi South 3.5 mph - N/A Snow Light Snow
10:45 AM 28.4 °F 24.6 °F 24.8 °F 86% 30.11 in 5.0 mi Variable 3.5 mph - N/A Snow Light Snow
11:45 AM 28.4 °F 22.2 °F 26.6 °F 93% 30.10 in 7.0 mi SSE 5.8 mph - N/A   Light Freezing Rain
12:45 PM 30.2 °F 25.4 °F 26.6 °F 86% 30.07 in 10.0 mi Variable 4.6 mph - N/A   Overcast
1:45 PM 32.0 °F 26.4 °F 26.6 °F 80% 30.07 in 10.0 mi Variable 5.8 mph - N/A   Overcast
3:45 PM 32.0 °F 26.4 °F 26.6 °F 80% 30.07 in 10.0 mi South 5.8 mph - N/A   Overcast
4:55 PM 30.2 °F - 24.8 °F 80% 30.06 in 10.0 mi Calm Calm - N/A   Overcast
5:50 PM 30.2 °F - 24.8 °F 80% 30.06 in 10.0 mi Calm Calm - N/A   Overcast
6:53 PM 28.4 °F - 24.8 °F 86% 30.06 in 10.0 mi Calm Calm - N/A   Mostly Cloudy
7:53 PM 28.4 °F - 24.8 °F 86% 30.06 in 10.0 mi Calm Calm - N/A   Overcast
8:50 PM 28.4 °F 24.6 °F 24.8 °F 86% 30.06 in 10.0 mi NE 3.5 mph - N/A   Overcast
9:15 PM 30.2 °F 26.7 °F 24.8 °F 80% 30.05 in 10.0 mi NE 3.5 mph - N/A   Overcast
9:35 PM 28.4 °F - 24.8 °F 86% 30.05 in 10.0 mi Calm Calm - N/A   Overcast
9:45 PM 26.6 °F 22.6 °F 23.0 °F 86% 30.05 in 10.0 mi ENE 3.5 mph - N/A   Overcast
9:55 PM 28.4 °F 24.6 °F 23.0 °F 80% 30.04 in 10.0 mi NE 3.5 mph - N/A   Overcast
10:15 PM 26.6 °F 21.2 °F 23.0 °F 86% 30.04 in 10.0 mi ENE 4.6 mph - N/A   Mostly Cloudy
10:35 PM 26.6 °F 21.2 °F 23.0 °F 86% 30.04 in 10.0 mi ENE 4.6 mph - N/A   Scattered Clouds
10:55 PM 26.6 °F 22.6 °F 23.0 °F 86% 30.05 in 10.0 mi East 3.5 mph - N/A   Clear
11:15 PM 26.6 °F 22.6 °F 23.0 °F 86% 30.06 in 10.0 mi ESE 3.5 mph - N/A   Clear
11:35 PM 24.8 °F 20.5 °F 23.0 °F 93% 30.06 in 10.0 mi East 3.5 mph - N/A   Clear